Temp
-13 -13 -13 -12 -12 -12 -12 -12 -11 -11 -12 -11 -11 -12 -12 -12 -12 -12 -12 -12 -12 -12 -12 -12 -12 -11 -12 -12 -12 -13 -12 -12 -13 -13 -12 -12 -12 -12 -12 -12 -12 -11 -11 -11 -11 -12 -11
-13 -13 -13 -13 -13 -12 -12 -12 -12 -12 -12 -12 -12 -13 -13 -13 -13 -13 -13 -13 -13 -13 -13 -13 -13 -12 -12 -10 -13 -14 -14 -13 -13 -13 -13 -13 -13 -13 -12 -12 -12 -12 -12 -11 -11 -11 -12
-13 -13 -13 -13 -13 -13 -13 -13 -13 -13 -13 -13 -13 -13 -13 -13 -13 -14 -14 -14 -14 -13 -13 -14 -14 -14 -13 -12 -13 -13 -14 -14 -14 -14 -14 -14 -14 -13 -13 -13 -12 -12 -12 -12 -11 -11 -11
-13 -13 -13 -13 -13 -13 -13 -13 -14 -14 -14 -14 -14 -14 -14 -14 -14 -14 -15 -15 -15 -15 -16 -16 -16 -16 -15 -15 -13 -14 -15 -15 -15 -15 -15 -15 -15 -14 -14 -14 -13 -13 -13 -12 -11 -11 -12
-14 -14 -13 -13 -14 -14 -14 -14 -14 -15 -15 -15 -15 -15 -15 -15 -15 -15 -16 -16 -16 -16 -16 -17 -17 -16 -15 -15 -15 -15 -15 -16 -16 -15 -15 -15 -15 -15 -15 -14 -14 -13 -12 -12 -12 -12 -12
-14 -14 -14 -14 -14 -14 -15 -15 -15 -15 -15 -15 -15 -16 -16 -16 -16 -17 -17 -17 -17 -17 -17 -17 -16 -15 -15 -14 -14 -14 -14 -15 -15 -16 -16 -16 -15 -15 -15 -15 -13 -12 -14 -14 -13 -14 -13
-15 -15 -15 -15 -15 -15 -15 -15 -16 -16 -16 -16 -16 -17 -18 -18 -18 -18 -17 -17 -17 -17 -16 -17 -17 -17 -16 -15 -15 -15 -16 -16 -16 -16 -16 -15 -16 -15 -14 -15 -14 -15 -15 -14 -14 -14 -14
-15 -15 -16 -16 -16 -16 -16 -16 -16 -16 -17 -18 -18 -18 -18 -18 -18 -18 -18 -17 -17 -17 -17 -17 -17 -17 -18 -19 -20 -22 -22 -19 -19 -17 -17 -17 -17 -15 -16 -16 -16 -16 -16 -14 -14 -16 -15
-15 -15 -16 -16 -16 -16 -16 -17 -17 -17 -18 -18 -18 -18 -19 -19 -18 -18 -18 -18 -18 -17 -18 -18 -21 -24 -24 -24 -24 -23 -23 -25 -24 -23 -20 -19 -16 -17 -17 -16 -16 -16 -16 -14 -16 -16 -13
-16 -16 -15 -15 -16 -16 -17 -18 -19 -18 -19 -18 -19 -19 -19 -19 -19 -19 -18 -18 -18 -19 -20 -21 -24 -24 -23 -24 -24 -24 -24 -25 -24 -23 -24 -22 -18 -19 -18 -17 -17 -16 -16 -16 -16 -16 -14
-16 -16 -16 -16 -16 -17 -18 -18 -19 -19 -19 -19 -19 -19 -19 -19 -20 -19 -19 -19 -20 -21 -22 -23 -24 -24 -24 -24 -24 -25 -26 -26 -23 -23 -22 -23 -23 -20 -18 -17 -17 -17 -18 -17 -16 -16 -16
-16 -16 -17 -17 -18 -18 -19 -20 -20 -20 -19 -19 -20 -20 -20 -20 -20 -19 -19 -21 -21 -23 -25 -24 -24 -23 -24 -24 -24 -25 -25 -25 -25 -23 -22 -23 -23 -21 -19 -19 -19 -18 -17 -17 -17 -16 -16
-17 -17 -17 -17 -18 -19 -20 -21 -21 -21 -20 -20 -20 -20 -20 -20 -20 -20 -21 -22 -23 -24 -25 -24 -24 -24 -24 -24 -24 -24 -25 -25 -24 -23 -22 -21 -21 -21 -22 -20 -19 -18 -18 -18 -18 -17 -14
-18 -18 -18 -18 -19 -21 -21 -22 -22 -21 -21 -21 -20 -20 -21 -20 -20 -21 -22 -22 -24 -25 -24 -25 -25 -24 -24 -24 -23 -24 -24 -25 -24 -23 -23 -23 -22 -22 -21 -20 -19 -19 -18 -18 -18 -18 -17
-18 -18 -20 -20 -21 -23 -23 -23 -23 -22 -21 -21 -21 -21 -21 -21 -21 -22 -22 -24 -25 -25 -25 -25 -25 -25 -24 -24 -23 -24 -24 -24 -24 -24 -23 -23 -22 -22 -22 -21 -21 -19 -19 -19 -19 -19 -18
-19 -20 -20 -21 -23 -23 -23 -23 -23 -22 -22 -21 -21 -21 -21 -21 -22 -22 -23 -24 -25 -25 -26 -25 -25 -25 -24 -24 -23 -23 -24 -24 -23 -23 -23 -22 -22 -22 -23 -22 -21 -21 -20 -19 -20 -19 -19
-19 -21 -22 -24 -24 -24 -24 -24 -23 -22 -22 -22 -21 -21 -21 -22 -22 -23 -24 -25 -25 -25 -26 -25 -25 -25 -25 -25 -24 -24 -23 -23 -23 -23 -23 -22 -22 -22 -22 -21 -21 -21 -21 -20 -20 -20 -20
-21 -22 -24 -24 -24 -25 -24 -24 -23 -23 -22 -22 -22 -22 -22 -22 -23 -23 -24 -25 -25 -25 -26 -25 -25 -25 -24 -24 -25 -24 -24 -23 -24 -23 -23 -23 -22 -21 -21 -21 -21 -21 -21 -21 -20 -21 -21
-22 -23 -24 -23 -25 -25 -25 -24 -24 -23 -22 -22 -22 -22 -22 -23 -23 -24 -25 -25 -25 -25 -25 -25 -25 -25 -24 -24 -24 -24 -24 -24 -23 -23 -23 -23 -22 -21 -20 -21 -21 -22 -21 -21 -21 -21 -20
-23 -24 -24 -24 -25 -25 -25 -24 -24 -23 -23 -22 -22 -22 -23 -23 -23 -24 -25 -25 -25 -25 -25 -25 -25 -25 -24 -24 -24 -24 -24 -24 -24 -23 -23 -23 -22 -21 -21 -21 -21 -21 -21 -21 -21 -22 -21
-23 -24 -25 -25 -25 -25 -25 -25 -24 -23 -23 -23 -22 -23 -23 -23 -23 -24 -24 -25 -25 -25 -25 -25 -25 -25 -25 -24 -24 -24 -24 -23 -23 -24 -24 -23 -22 -21 -21 -20 -21 -20 -21 -22 -21 -21 -20
-24 -24 -24 -25 -26 -25 -25 -25 -24 -24 -23 -23 -23 -23 -23 -23 -23 -24 -24 -25 -25 -25 -25 -25 -25 -25 -24 -24 -24 -23 -23 -23 -23 -23 -23 -23 -22 -23 -23 -23 -22 -22 -22 -21 -22 -22 -22
-25 -25 -25 -25 -26 -24 -25 -25 -25 -24 -24 -23 -23 -23 -23 -23 -23 -23 -24 -24 -24 -24 -25 -25 -25 -25 -24 -24 -24 -24 -23 -23 -23 -23 -23 -23 -23 -23 -23 -23 -22 -22 -22 -22 -22 -22 -21
-25 -25 -26 -25 -25 -25 -25 -25 -25 -25 -24 -23 -23 -24 -23 -23 -23 -23 -23 -24 -24 -24 -24 -24 -24 -24 -24 -25 -25 -25 -25 -25 -24 -24 -24 -24 -23 -23 -23 -22 -22 -22 -22 -21 -21 -21 -21
-25 -25 -25 -25 -25 -25 -24 -24 -25 -25 -24 -24 -24 -24 -23 -23 -23 -24 -24 -24 -24 -24 -24 -24 -24 -24 -25 -25 -26 -25 -25 -25 -25 -25 -24 -24 -24 -23 -23 -23 -23 -22 -22 -21 -21 -21 -21
-25 -26 -26 -25 -25 -25 -25 -25 -25 -25 -24 -25 -24 -24 -24 -24 -23 -24 -24 -24 -23 -24 -24 -24 -24 -24 -25 -25 -26 -25 -25 -25 -25 -25 -25 -25 -24 -24 -23 -23 -23 -22 -22 -21 -21 -21 -21
-26 -26 -26 -26 -26 -25 -25 -25 -25 -25 -25 -25 -25 -24 -24 -24 -24 -24 -24 -24 -24 -24 -24 -24 -24 -25 -25 -25 -26 -25 -25 -25 -25 -25 -24 -24 -24 -24 -23 -23 -23 -23 -22 -22 -22 -21 -22
-26 -26 -26 -26 -26 -26 -26 -25 -25 -25 -25 -25 -25 -25 -24 -24 -24 -24 -24 -24 -24 -24 -24 -24 -24 -24 -25 -25 -26 -25 -25 -25 -25 -25 -25 -24 -24 -24 -24 -24 -23 -23 -22 -22 -22 -22 -22
-27 -26 -26 -26 -26 -26 -26 -25 -25 -25 -25 -25 -26 -25 -25 -25 -25 -24 -24 -25 -25 -24 -24 -24 -24 -24 -25 -25 -26 -26 -26 -26 -25 -25 -25 -25 -24 -24 -24 -23 -24 -23 -23 -23 -22 -22 -22
Height
5735 5737 5736 5736 5736 5735 5734 5733 5732 5731 5730 5729 5727 5725 5723 5721 5720 5718 5716 5714 5712 5710 5708 5707 5705 5706 5706 5710 5713 5706 5708 5706 5710 5712 5713 5714 5718 5721 5727 5731 5732 5736 5740 5743 5746 5748 5747
5724 5725 5725 5725 5725 5725 5724 5723 5722 5721 5719 5718 5717 5715 5712 5710 5708 5706 5705 5703 5700 5698 5696 5693 5690 5691 5691 5696 5694 5696 5691 5692 5694 5695 5699 5700 5703 5705 5711 5715 5718 5724 5725 5729 5733 5737 5741
5713 5713 5713 5713 5713 5713 5712 5711 5710 5709 5708 5706 5705 5704 5701 5700 5698 5696 5694 5691 5688 5686 5684 5679 5677 5675 5679 5680 5674 5675 5673 5677 5677 5678 5680 5684 5686 5688 5696 5700 5707 5709 5712 5715 5721 5726 5730
5699 5700 5701 5701 5701 5701 5700 5700 5699 5698 5697 5696 5695 5693 5691 5689 5687 5685 5682 5681 5677 5673 5669 5663 5657 5656 5657 5655 5656 5655 5655 5656 5658 5662 5663 5665 5669 5675 5679 5683 5689 5692 5697 5703 5715 5710 5718
5686 5687 5689 5690 5690 5690 5690 5689 5688 5688 5687 5687 5685 5683 5681 5679 5677 5673 5669 5667 5663 5659 5654 5644 5638 5637 5642 5637 5632 5632 5635 5637 5636 5639 5641 5646 5650 5659 5661 5668 5671 5679 5687 5691 5698 5698 5703
5674 5676 5678 5678 5679 5679 5679 5679 5678 5679 5678 5677 5676 5674 5672 5670 5667 5661 5658 5654 5650 5644 5639 5624 5619 5615 5616 5609 5603 5607 5601 5604 5608 5611 5614 5625 5630 5637 5645 5651 5655 5673 5667 5675 5683 5687 5689
5663 5664 5665 5666 5668 5669 5668 5669 5669 5670 5671 5669 5667 5664 5662 5658 5654 5649 5646 5641 5637 5629 5623 5601 5596 5584 5583 5570 5566 5568 5556 5557 5572 5576 5587 5605 5604 5614 5641 5642 5654 5652 5654 5660 5670 5675 5672
5651 5652 5653 5656 5657 5659 5659 5659 5660 5660 5660 5658 5656 5654 5651 5648 5644 5638 5632 5625 5619 5612 5613 5581 5577 5562 5553 5538 5534 5531 5519 5524 5536 5547 5564 5570 5575 5622 5624 5624 5634 5635 5640 5651 5661 5655 5655
5640 5642 5641 5644 5646 5649 5649 5649 5650 5650 5650 5650 5648 5645 5642 5638 5633 5627 5621 5614 5605 5596 5587 5578 5557 5549 5539 5533 5520 5510 5499 5510 5519 5531 5540 5550 5590 5601 5599 5610 5617 5623 5630 5641 5646 5638 5644
5628 5630 5630 5632 5636 5638 5639 5639 5640 5641 5642 5641 5639 5635 5633 5629 5624 5617 5611 5602 5592 5581 5571 5561 5552 5544 5535 5523 5510 5493 5491 5508 5521 5527 5540 5549 5572 5575 5588 5599 5608 5615 5623 5625 5625 5625 5639
5617 5618 5619 5620 5624 5627 5629 5629 5631 5633 5633 5632 5630 5627 5624 5619 5614 5608 5601 5592 5581 5572 5561 5554 5549 5541 5532 5523 5512 5503 5501 5510 5525 5532 5538 5551 5555 5565 5576 5590 5596 5607 5608 5611 5614 5619 5627
5605 5606 5608 5611 5614 5617 5619 5622 5624 5624 5624 5624 5622 5619 5614 5612 5606 5600 5591 5582 5572 5563 5556 5550 5546 5539 5533 5522 5515 5514 5513 5516 5526 5533 5537 5550 5553 5558 5571 5580 5588 5594 5601 5604 5606 5611 5611
5593 5596 5599 5602 5605 5608 5611 5613 5616 5616 5617 5617 5615 5611 5607 5602 5597 5591 5583 5574 5565 5558 5551 5547 5543 5539 5532 5524 5518 5517 5520 5523 5526 5534 5540 5546 5551 5557 5564 5571 5578 5585 5590 5595 5599 5601 5612
5584 5586 5589 5595 5598 5600 5603 5606 5608 5608 5610 5609 5608 5604 5599 5594 5590 5583 5575 5567 5558 5551 5545 5545 5541 5538 5534 5527 5524 5520 5524 5527 5532 5535 5539 5547 5551 5555 5561 5566 5577 5582 5586 5592 5595 5599 5606
5576 5579 5581 5585 5589 5594 5597 5599 5601 5602 5603 5602 5600 5596 5591 5589 5583 5576 5569 5561 5553 5548 5544 5541 5541 5538 5536 5532 5526 5525 5527 5528 5531 5535 5541 5547 5553 5555 5559 5566 5571 5574 5580 5588 5591 5596 5601
5566 5569 5574 5578 5583 5586 5589 5592 5594 5595 5596 5594 5593 5589 5586 5583 5576 5571 5564 5556 5550 5545 5542 5540 5539 5538 5535 5531 5529 5525 5528 5530 5532 5535 5538 5544 5550 5553 5556 5561 5567 5572 5578 5583 5586 5593 5598
5557 5560 5566 5571 5575 5579 5583 5585 5588 5588 5589 5588 5586 5583 5581 5577 5572 5566 5558 5552 5548 5544 5541 5540 5539 5538 5537 5531 5530 5527 5529 5530 5532 5534 5538 5541 5547 5551 5554 5557 5564 5568 5571 5577 5584 5589 5594
5547 5552 5558 5563 5568 5572 5576 5579 5581 5581 5582 5581 5580 5579 5576 5572 5569 5561 5554 5551 5548 5544 5541 5539 5539 5538 5538 5535 5532 5529 5528 5530 5532 5534 5536 5539 5544 5549 5553 5555 5560 5565 5570 5575 5579 5586 5589
5539 5545 5549 5555 5561 5565 5568 5572 5573 5575 5576 5576 5575 5573 5571 5568 5564 5557 5552 5550 5547 5544 5541 5539 5538 5537 5537 5537 5535 5532 5531 5530 5532 5534 5535 5539 5543 5548 5551 5555 5557 5561 5566 5570 5575 5580 5584
5530 5536 5541 5547 5553 5557 5561 5564 5566 5568 5569 5570 5570 5568 5566 5563 5559 5555 5551 5549 5547 5544 5541 5539 5538 5537 5536 5536 5535 5534 5533 5532 5532 5533 5535 5539 5542 5546 5550 5552 5555 5560 5562 5566 5570 5575 5582
5523 5528 5535 5539 5545 5550 5555 5558 5559 5561 5564 5565 5564 5563 5562 5559 5557 5552 5550 5548 5546 5545 5543 5541 5539 5538 5537 5536 5535 5532 5532 5532 5533 5534 5535 5538 5539 5543 5544 5548 5552 5556 5560 5565 5569 5573 5577
5514 5520 5527 5531 5537 5542 5548 5550 5553 5555 5558 5558 5558 5559 5557 5556 5554 5550 5548 5546 5545 5544 5543 5542 5542 5541 5539 5537 5535 5534 5530 5530 5530 5533 5536 5538 5540 5541 5542 5544 5549 5552 5556 5560 5564 5568 5571
5508 5514 5519 5524 5529 5535 5540 5543 5546 5548 5550 5551 5552 5553 5553 5553 5551 5549 5547 5545 5544 5543 5543 5542 5541 5540 5538 5536 5533 5531 5529 5527 5527 5529 5531 5536 5538 5541 5543 5546 5548 5552 5554 5557 5559 5561 5564
5500 5506 5511 5517 5522 5528 5532 5536 5540 5542 5544 5545 5546 5548 5548 5548 5548 5547 5545 5544 5543 5542 5541 5539 5538 5536 5535 5531 5529 5526 5524 5519 5519 5523 5527 5531 5535 5539 5541 5544 5547 5548 5551 5553 5556 5556 5559
5491 5497 5503 5508 5515 5520 5524 5528 5532 5535 5538 5539 5540 5542 5543 5543 5544 5543 5541 5541 5540 5539 5539 5537 5536 5534 5532 5529 5528 5526 5524 5522 5521 5522 5526 5528 5533 5536 5539 5542 5545 5545 5547 5548 5549 5552 5554
5482 5488 5494 5500 5506 5511 5515 5519 5524 5527 5531 5533 5534 5535 5538 5538 5539 5539 5538 5538 5537 5536 5536 5535 5533 5532 5530 5528 5527 5526 5525 5525 5524 5524 5525 5528 5531 5534 5536 5538 5541 5541 5542 5543 5546 5546 5548
5473 5479 5486 5492 5497 5502 5507 5512 5516 5520 5523 5526 5527 5529 5531 5532 5533 5533 5534 5534 5533 5533 5532 5532 5530 5529 5528 5527 5527 5526 5526 5526 5525 5523 5525 5527 5529 5531 5533 5534 5535 5534 5537 5538 5542 5547 5540
5464 5471 5478 5483 5489 5494 5498 5503 5508 5512 5516 5519 5521 5523 5525 5526 5528 5528 5528 5529 5529 5528 5528 5528 5528 5526 5526 5525 5526 5525 5525 5525 5525 5524 5525 5525 5527 5529 5530 5530 5532 5531 5533 5535 5535 5537 5537
5456 5462 5469 5476 5481 5487 5491 5496 5500 5504 5508 5512 5515 5516 5518 5521 5522 5523 5523 5524 5524 5524 5524 5523 5523 5522 5522 5522 5523 5524 5524 5524 5524 5525 5524 5525 5525 5524 5527 5525 5526 5527 5528 5528 5528 5530 5533
Wind_Speed
44 44 45 45 44 43 43 44 46 47 50 50 48 48 47 47 48 49 50 52 53 55 56 57 57 58 56 53 50 50 55 56 54 54 57 62 65 64 63 59 60 55 53 52 52 51 49
47 48 50 48 49 53 53 52 53 53 52 50 48 48 49 48 48 49 50 52 53 53 55 57 59 62 63 62 56 53 57 58 58 58 55 57 61 64 65 64 64 62 59 57 55 56 52
50 53 51 50 51 52 53 54 55 53 51 49 48 48 47 47 49 49 49 50 50 53 56 58 60 60 62 63 65 64 61 55 59 61 61 59 60 63 66 68 65 65 67 62 59 58 57
55 55 54 53 52 53 53 53 52 50 49 48 47 48 48 48 48 47 47 48 50 51 54 57 60 62 65 66 69 68 64 64 61 60 62 63 62 62 62 66 69 68 68 69 62 64 61
54 52 52 51 52 49 49 48 49 49 47 46 47 47 47 48 47 46 47 50 53 54 57 62 66 68 70 73 76 77 73 69 69 67 67 67 65 61 62 63 67 71 70 69 69 67 64
46 47 48 47 47 47 47 49 48 47 46 45 46 46 46 45 44 46 50 52 56 58 60 69 76 81 82 85 87 87 87 85 82 77 76 71 70 65 63 63 69 68 72 69 68 60 68
46 46 45 44 46 47 49 49 47 44 45 44 43 43 43 44 47 50 52 56 58 63 68 78 83 85 86 91 94 92 90 89 88 89 84 74 76 72 58 58 52 61 65 63 67 58 62
46 46 45 45 47 47 47 45 42 42 41 41 41 42 45 45 48 52 55 58 62 67 69 82 80 77 68 64 64 54 59 69 71 80 80 77 77 58 59 58 53 61 65 64 64 49 59
48 49 48 49 47 45 46 43 39 39 40 41 41 43 44 47 49 52 55 60 65 71 74 70 50 34 38 39 41 40 45 39 47 42 63 69 64 58 61 57 55 56 58 56 63 64 71
51 52 49 49 48 44 45 39 36 38 39 41 41 42 46 47 48 53 57 62 67 70 64 44 18 30 32 35 36 32 23 39 32 32 29 42 54 55 56 54 51 51 52 52 60 69 64
51 47 44 49 46 43 43 39 33 37 39 41 40 41 44 45 48 52 58 62 64 62 43 27 18 22 23 31 26 18 6 34 31 26 25 31 35 51 56 50 54 48 46 49 54 57 57
48 45 43 45 39 40 36 33 35 33 38 38 38 41 42 44 47 53 56 57 58 41 22 18 14 15 21 14 15 7 16 21 35 32 25 21 27 41 45 40 44 44 45 46 49 50 54
37 37 39 43 39 35 34 32 30 34 37 36 38 38 39 41 48 52 51 54 45 26 23 13 9 11 18 13 12 9 17 26 25 14 19 22 18 34 34 40 43 42 39 39 41 44 46
38 38 35 37 35 31 31 28 30 35 35 36 36 35 36 40 46 47 48 48 34 25 15 12 21 14 4 16 11 2 4 19 26 28 11 25 15 26 33 34 31 30 31 31 30 30 37
37 37 36 35 32 26 28 28 31 32 33 34 32 32 35 40 43 42 46 36 26 18 15 17 18 21 9 6 11 12 12 16 22 28 20 13 16 21 25 23 24 26 28 24 23 22 18
38 38 36 30 28 30 29 29 31 29 32 29 29 31 34 38 39 40 40 26 19 16 14 16 20 17 11 7 4 19 12 11 11 20 26 19 23 20 25 28 25 20 23 29 27 23 18
37 37 34 31 33 29 27 29 27 28 29 26 27 29 32 35 35 38 29 18 13 13 14 15 15 15 16 21 10 15 9 13 10 13 20 27 27 25 29 27 23 27 24 30 24 25 12
38 37 34 38 30 31 28 28 24 27 27 23 24 27 29 30 31 33 21 13 11 12 11 10 12 10 11 15 18 16 10 11 12 14 17 17 16 17 15 24 26 21 17 20 23 20 22
42 40 38 36 34 29 30 29 24 25 24 21 22 24 26 26 28 26 17 10 10 10 10 9 8 8 9 10 13 12 15 12 4 8 21 20 19 19 20 19 21 25 23 23 24 24 16
43 41 38 38 35 34 31 28 27 26 23 19 21 22 23 22 25 19 13 9 9 8 10 10 9 8 9 9 10 12 12 9 12 6 5 28 21 21 19 16 13 18 20 21 22 21 19
45 42 41 38 36 36 33 29 25 24 19 18 18 19 19 20 21 15 10 7 8 6 8 9 10 12 11 12 11 15 14 12 9 8 10 5 8 24 16 20 21 17 15 19 21 19 19
49 46 42 41 38 36 33 28 26 22 19 16 18 17 15 16 16 12 8 7 8 4 2 0 1 5 9 13 16 17 19 18 17 13 11 12 13 14 15 6 13 15 18 18 18 20 23
48 43 43 46 40 35 33 29 25 22 20 17 17 15 13 12 11 10 7 5 4 3 3 4 4 5 9 11 12 14 19 23 23 22 18 15 13 12 13 12 14 13 14 15 15 17 18
43 42 42 42 41 35 34 32 27 22 21 19 17 15 13 12 10 8 4 4 5 7 6 6 9 11 13 16 14 12 11 8 16 21 19 17 17 14 14 10 13 17 15 16 20 22 19
40 38 45 43 41 41 37 32 24 23 22 21 20 16 14 14 12 12 10 9 8 9 9 10 11 13 14 14 11 6 6 9 7 10 21 16 14 15 14 16 15 16 17 20 22 23 20
34 33 33 36 35 31 30 27 26 26 24 22 21 18 16 16 15 13 15 15 13 12 11 12 13 13 13 10 6 4 2 1 2 5 4 18 17 12 12 16 15 16 18 21 22 25 24
38 36 35 35 35 33 31 30 30 28 25 23 23 19 18 18 18 15 14 16 15 14 13 14 14 13 12 9 2 3 2 2 5 5 4 12 13 13 14 14 20 20 19 16 20 16 25
40 38 37 36 35 33 33 32 31 29 26 24 24 21 20 19 18 18 14 15 15 15 14 15 15 15 11 7 4 4 4 9 7 6 8 6 8 9 14 14 17 18 19 20 18 27 21
38 37 36 35 33 30 29 29 28 27 26 25 23 24 21 18 20 19 18 14 16 14 13 15 17 15 12 9 8 10 8 6 9 8 10 10 14 6 15 7 16 19 20 29 19 14 23
Wind_Direction
261 266 271 272 273 276 280 283 284 286 289 291 286 284 283 284 286 288 288 288 288 287 286 284 282 280 278 275 273 271 268 265 261 258 256 252 251 251 249 248 249 244 246 248 248 248 242
264 271 270 271 273 278 282 284 286 287 288 285 283 282 284 286 287 289 288 286 286 286 286 286 285 283 282 279 277 273 269 267 264 262 258 255 251 249 248 246 245 246 242 241 243 247 248
270 271 271 274 277 279 280 282 284 286 285 282 282 284 286 285 286 286 286 286 287 286 286 286 284 283 282 281 277 275 273 267 264 263 259 256 252 247 246 246 245 243 244 242 239 244 249
270 271 272 274 275 277 278 280 281 281 279 281 282 285 285 285 285 287 289 290 295 296 295 292 291 291 291 286 282 276 273 272 266 261 259 256 253 250 246 243 243 242 243 243 242 242 245
267 267 270 274 276 275 274 275 275 276 276 280 283 284 283 285 287 292 297 300 299 298 298 296 293 289 287 283 279 276 271 266 262 259 254 253 251 249 243 241 240 242 244 245 245 246 244
261 266 268 268 268 269 269 270 272 272 275 278 279 280 282 287 293 297 299 300 301 302 301 296 292 290 290 284 280 276 271 262 254 252 251 249 248 245 242 240 240 242 242 241 242 248 246
259 262 263 267 264 264 265 270 269 271 274 275 277 283 291 296 298 299 301 301 304 306 307 306 304 303 295 288 283 276 269 262 253 247 245 245 244 242 246 249 245 240 241 242 239 236 244
251 258 260 262 259 267 268 266 266 271 274 280 285 291 295 297 300 303 304 307 309 308 308 308 307 303 296 288 284 277 267 256 248 242 236 232 235 241 239 239 236 239 238 239 241 236 235
251 256 254 255 262 265 265 262 267 273 278 282 287 294 295 300 304 306 309 313 312 313 316 314 312 300 296 309 311 293 263 227 232 226 228 224 236 233 231 232 234 237 239 238 241 240 244
248 254 254 254 256 262 263 259 266 273 277 283 290 294 299 304 307 310 314 315 315 318 323 324 307 315 319 325 322 315 241 205 196 214 200 215 212 223 227 231 233 238 240 243 242 243 246
250 249 252 255 253 262 258 260 265 271 276 285 291 295 302 305 310 315 317 316 321 326 330 321 310 318 343 338 1 0 187 189 186 183 182 212 204 213 221 225 230 233 239 244 247 248 245
248 249 249 253 249 257 255 260 264 272 280 286 290 298 304 308 315 318 318 322 329 332 315 302 309 317 324 331 355 302 216 181 200 205 209 197 223 213 217 223 229 236 239 242 246 246 244
245 250 255 251 253 252 254 256 265 272 281 286 292 300 307 315 320 320 323 330 330 325 316 278 296 309 303 329 10 16 194 175 183 211 180 186 191 220 212 218 223 229 232 235 240 240 243
246 248 249 256 254 248 253 259 265 272 281 286 294 303 312 321 320 323 329 332 333 327 308 286 296 353 11 353 21 27 145 196 200 200 203 206 201 202 207 219 229 235 237 238 241 244 243
251 248 249 246 246 243 250 257 264 274 280 288 297 306 319 321 322 327 333 335 335 322 308 300 302 305 359 321 40 127 183 183 199 202 202 214 202 236 214 217 211 213 215 195 203 199 188
245 245 245 239 233 240 249 255 265 273 280 291 300 313 320 323 326 330 334 339 333 319 316 302 318 291 303 2 335 126 185 211 220 208 203 189 200 213 218 210 198 213 217 199 200 188 193
244 237 234 226 232 240 247 257 264 272 281 295 303 315 320 326 328 334 338 343 328 311 308 315 322 332 322 336 25 63 101 210 200 206 213 215 202 232 226 218 219 210 213 210 212 213 208
234 228 220 228 228 237 243 253 267 274 281 296 305 316 325 328 332 337 343 343 314 295 297 312 318 336 330 339 341 355 18 95 195 210 199 222 189 241 233 226 220 228 205 212 223 222 218
231 223 225 229 232 235 248 248 262 271 280 294 303 315 326 328 338 343 347 334 309 289 287 294 311 329 329 337 338 348 340 337 72 193 211 191 196 186 183 221 219 213 217 213 209 196 222
225 220 224 227 235 234 243 247 260 269 279 284 300 315 325 327 339 343 349 322 310 282 285 291 300 311 314 323 327 315 322 329 329 328 147 207 209 197 213 219 227 196 211 202 205 209 211
228 226 223 228 238 237 244 249 260 267 268 279 296 311 323 328 338 343 343 312 303 286 282 289 296 297 292 289 285 285 295 297 290 285 305 232 191 193 195 195 203 191 191 201 202 213 208
230 235 228 227 236 241 243 248 257 260 261 273 290 305 318 320 338 350 349 336 301 311 322 263 245 286 287 284 275 268 275 273 267 258 235 260 238 237 246 214 206 224 209 215 213 211 221
238 237 233 230 236 244 243 250 255 262 262 267 277 292 305 312 326 355 341 347 338 27 357 326 309 303 306 305 295 285 273 260 256 243 228 222 232 237 239 234 236 238 236 234 231 234 237
234 235 235 236 242 249 247 252 256 255 254 258 270 278 287 295 288 302 339 349 331 325 327 325 324 327 333 331 334 335 345 313 247 216 211 212 210 215 228 210 223 231 230 230 230 242 238
231 238 236 237 243 246 251 251 255 250 245 254 262 268 271 278 276 270 283 291 297 302 309 313 318 322 327 330 340 340 22 19 39 189 187 184 187 193 210 216 226 242 227 228 229 242 245
235 240 237 238 243 249 246 247 248 248 238 248 256 259 260 269 271 270 267 273 280 286 295 303 310 317 327 336 336 352 33 326 30 75 203 215 209 205 208 208 225 229 234 225 231 241 240
236 238 240 242 245 245 247 252 248 237 234 244 250 251 254 261 271 278 271 271 273 279 288 298 306 310 321 334 343 337 202 202 218 243 107 197 212 217 221 222 214 220 205 213 213 233 232
228 229 234 237 239 238 240 242 239 230 228 241 244 246 249 254 268 278 278 271 279 276 279 286 291 299 303 305 227 251 231 211 222 243 219 225 190 208 220 225 234 226 213 195 196 225 239
232 233 229 227 228 230 230 226 222 222 228 239 239 245 248 252 262 274 278 275 273 280 276 276 277 284 282 271 233 217 230 233 229 232 232 235 230 215 210 220 241 238 243 227 208 202 217